QLK1803 YBBN-YPAD

Flight info

Callsign QLK1803
Flight time N/A
Altitude 38000
Route SANEG Q4 PAVBI Q16 MIA Q4 WOONA Q60 KAKLU
Aircraft E190/M-SDGHIRWYZ/EB1

Departure

Time 2026-05-04 01:05
Airport Brisbane International Airport (YBBN)

Arrival

Time N/A
Airport Adelaide International Airport (YPAD)
Time Latitude Longitude Altitude Speed Heading
2026-05-04 00:49 -27.38364 153.12257 20 ft 0 kts 324°
2026-05-04 00:55 -27.38370 153.12261 22 ft 4 kts 324°
2026-05-04 00:55 -27.38392 153.12279 22 ft 4 kts 324°
2026-05-04 00:55 -27.38408 153.12290 22 ft 4 kts 337°
2026-05-04 00:55 -27.38427 153.12301 20 ft 4 kts 303°
2026-05-04 00:56 -27.38433 153.12325 20 ft 3 kts 271°
2026-05-04 00:56 -27.38433 153.12343 20 ft 0 kts 271°
2026-05-04 00:58 -27.38433 153.12339 20 ft 1 kts 269°
2026-05-04 00:58 -27.38436 153.12335 20 ft 1 kts 245°
2026-05-04 00:59 -27.38452 153.12331 20 ft 4 kts 185°
2026-05-04 00:59 -27.38495 153.12346 22 ft 10 kts 166°
2026-05-04 00:59 -27.38550 153.12378 20 ft 7 kts 111°
2026-05-04 00:59 -27.38543 153.12437 21 ft 9 kts 57°
2026-05-04 01:00 -27.38479 153.12487 20 ft 14 kts 26°
2026-05-04 01:00 -27.38382 153.12542 20 ft 17 kts 27°
2026-05-04 01:00 -27.38276 153.12603 20 ft 17 kts 24°
2026-05-04 01:00 -27.38168 153.12664 20 ft 18 kts 27°
2026-05-04 01:01 -27.38054 153.12730 20 ft 19 kts 27°
2026-05-04 01:01 -27.37934 153.12799 20 ft 20 kts 26°
2026-05-04 01:01 -27.37811 153.12869 22 ft 20 kts 27°
2026-05-04 01:01 -27.37684 153.12942 20 ft 21 kts 27°
2026-05-04 01:02 -27.37550 153.13018 21 ft 22 kts 27°
2026-05-04 01:02 -27.37418 153.13094 21 ft 18 kts 27°
2026-05-04 01:02 -27.37309 153.13155 20 ft 14 kts 27°
2026-05-04 01:02 -27.37272 153.13197 20 ft 6 kts 71°
2026-05-04 01:03 -27.37278 153.13244 20 ft 6 kts 108°
2026-05-04 01:03 -27.37292 153.13276 20 ft 9 kts 117°
2026-05-04 01:03 -27.37329 153.13360 22 ft 15 kts 118°
2026-05-04 01:03 -27.37472 153.13427 21 ft 21 kts 199°
2026-05-04 01:04 -27.37584 153.13363 21 ft 38 kts 206°
2026-05-04 01:04 -27.38034 153.13107 20 ft 107 kts 206°
2026-05-04 01:04 -27.38876 153.12628 26 ft 165 kts 209°
2026-05-04 01:04 -27.39980 153.11984 456 ft 188 kts 205°
2026-05-04 01:05 -27.41201 153.11276 1151 ft 208 kts 206°
2026-05-04 01:05 -27.42596 153.10562 1566 ft 235 kts 194°
2026-05-04 01:05 -27.44317 153.10624 1920 ft 268 kts 158°
2026-05-04 01:05 -27.45902 153.11705 3142 ft 262 kts 142°
2026-05-04 01:06 -27.47337 153.12931 4453 ft 254 kts 141°
2026-05-04 01:06 -27.48713 153.14100 5679 ft 248 kts 143°
2026-05-04 01:06 -27.50352 153.14944 6308 ft 273 kts 168°
2026-05-04 01:06 -27.52275 153.14750 7093 ft 283 kts 194°
2026-05-04 01:07 -27.54176 153.14105 8032 ft 286 kts 197°
2026-05-04 01:07 -27.56068 153.13386 8975 ft 289 kts 199°
2026-05-04 01:07 -27.57975 153.12620 9958 ft 292 kts 200°
2026-05-04 01:07 -27.59927 153.11847 10648 ft 305 kts 200°
2026-05-04 01:08 -27.61964 153.11050 11220 ft 320 kts 200°
2026-05-04 01:08 -27.64118 153.10289 11990 ft 328 kts 198°
2026-05-04 01:08 -27.66336 153.09573 12893 ft 333 kts 198°
2026-05-04 01:08 -27.68579 153.08844 13812 ft 338 kts 199°
2026-05-04 01:09 -27.70855 153.08092 14652 ft 343 kts 199°
2026-05-04 01:09 -27.73163 153.07325 15511 ft 348 kts 200°
2026-05-04 01:09 -27.75504 153.06541 16355 ft 353 kts 200°
2026-05-04 01:09 -27.77876 153.05749 17168 ft 358 kts 200°
2026-05-04 01:10 -27.80290 153.04939 17951 ft 363 kts 201°
2026-05-04 01:10 -27.82560 153.03736 18638 ft 359 kts 221°
2026-05-04 01:10 -27.84473 153.01937 19356 ft 358 kts 226°
2026-05-04 01:10 -27.86317 153.00081 20030 ft 361 kts 226°
2026-05-04 01:11 -27.88207 152.98188 20707 ft 364 kts 226°
2026-05-04 01:11 -27.90118 152.96294 21386 ft 366 kts 226°
2026-05-04 01:11 -27.92040 152.94396 22043 ft 369 kts 226°
2026-05-04 01:11 -27.93989 152.92472 22688 ft 372 kts 226°
2026-05-04 01:12 -27.95949 152.90537 23311 ft 375 kts 226°
2026-05-04 01:12 -27.97923 152.88584 23881 ft 378 kts 227°
2026-05-04 01:12 -27.99907 152.86628 24388 ft 379 kts 227°
2026-05-04 01:12 -28.01897 152.84656 24895 ft 381 kts 227°
2026-05-04 01:13 -28.03872 152.82696 25385 ft 383 kts 227°
2026-05-04 01:13 -28.05882 152.80696 25842 ft 385 kts 227°
2026-05-04 01:13 -28.07901 152.78685 26298 ft 387 kts 228°
2026-05-04 01:13 -28.09932 152.76660 26795 ft 389 kts 228°
2026-05-04 01:14 -28.11965 152.74633 27248 ft 391 kts 228°
2026-05-04 01:14 -28.14014 152.72589 27701 ft 392 kts 228°
2026-05-04 01:14 -28.16063 152.70539 28120 ft 394 kts 229°
2026-05-04 01:14 -28.18125 152.68473 28532 ft 396 kts 229°
2026-05-04 01:15 -28.20195 152.66398 28947 ft 398 kts 229°
2026-05-04 01:15 -28.22279 152.64312 29346 ft 399 kts 229°
2026-05-04 01:15 -28.24364 152.62216 29712 ft 401 kts 229°
2026-05-04 01:15 -28.26455 152.60111 30088 ft 403 kts 229°
2026-05-04 01:16 -28.28529 152.58020 30382 ft 405 kts 230°
2026-05-04 01:16 -28.30639 152.55896 30716 ft 405 kts 230°
2026-05-04 01:16 -28.32746 152.53778 31022 ft 405 kts 230°
2026-05-04 01:16 -28.34862 152.51643 31306 ft 407 kts 230°
2026-05-04 01:17 -28.36978 152.49504 31607 ft 407 kts 231°
2026-05-04 01:17 -28.38868 152.47163 31885 ft 399 kts 239°
2026-05-04 01:17 -28.40600 152.44706 32218 ft 399 kts 240°
2026-05-04 01:17 -28.42313 152.42235 32576 ft 398 kts 240°
2026-05-04 01:18 -28.44020 152.39769 33068 ft 393 kts 240°
2026-05-04 01:18 -28.45704 152.37334 33551 ft 389 kts 240°
2026-05-04 01:18 -28.47376 152.34910 33984 ft 387 kts 240°
2026-05-04 01:18 -28.49010 152.32542 34331 ft 385 kts 241°
2026-05-04 01:19 -28.50657 152.30149 34592 ft 384 kts 241°
2026-05-04 01:19 -28.52303 152.27761 34879 ft 383 kts 241°
2026-05-04 01:19 -28.53942 152.25382 35113 ft 382 kts 241°
2026-05-04 01:19 -28.55577 152.23005 35339 ft 381 kts 241°
2026-05-04 01:20 -28.57209 152.20631 35523 ft 381 kts 241°
2026-05-04 01:20 -28.58847 152.18251 35688 ft 381 kts 241°
2026-05-04 01:20 -28.60477 152.15878 35909 ft 380 kts 241°
2026-05-04 01:20 -28.62099 152.13516 36125 ft 379 kts 241°
2026-05-04 01:21 -28.63721 152.11151 36343 ft 378 kts 241°
2026-05-04 01:21 -28.65343 152.08787 36560 ft 377 kts 241°
2026-05-04 01:21 -28.66937 152.06460 36760 ft 377 kts 241°
2026-05-04 01:21 -28.68551 152.04102 36957 ft 376 kts 241°
2026-05-04 01:22 -28.70162 152.01747 37168 ft 376 kts 241°
2026-05-04 01:22 -28.71770 151.99399 37403 ft 374 kts 242°
2026-05-04 01:22 -28.73366 151.97064 37556 ft 374 kts 242°
2026-05-04 01:22 -28.74945 151.94753 37693 ft 374 kts 242°
2026-05-04 01:23 -28.76543 151.92413 37846 ft 373 kts 242°
2026-05-04 01:23 -28.78139 151.90075 37989 ft 373 kts 242°
2026-05-04 01:23 -28.79722 151.87758 38336 ft 368 kts 242°
2026-05-04 01:24 -28.82896 151.83093 38236 ft 377 kts 242°
2026-05-04 01:24 -28.86155 151.78301 38152 ft 386 kts 242°
2026-05-04 01:25 -28.89471 151.73432 38146 ft 390 kts 242°
2026-05-04 01:25 -28.92794 151.68551 38127 ft 387 kts 242°
2026-05-04 01:26 -28.96035 151.63692 38151 ft 387 kts 243°
2026-05-04 01:26 -28.99269 151.58765 38151 ft 389 kts 242°
2026-05-04 01:27 -29.02526 151.53826 38144 ft 388 kts 242°
2026-05-04 01:27 -29.05781 151.48889 38152 ft 388 kts 242°
2026-05-04 01:28 -29.09030 151.43956 38176 ft 388 kts 243°
2026-05-04 01:28 -29.12266 151.39038 38154 ft 387 kts 243°
2026-05-04 01:29 -29.15507 151.34101 38145 ft 388 kts 243°
2026-05-04 01:29 -29.18754 151.29150 38138 ft 389 kts 243°
2026-05-04 01:30 -29.21983 151.24224 38140 ft 389 kts 243°
2026-05-04 01:30 -29.25177 151.19238 38134 ft 388 kts 244°
2026-05-04 01:31 -29.28334 151.14224 38140 ft 388 kts 244°
2026-05-04 01:31 -29.31501 151.09216 38136 ft 387 kts 244°
2026-05-04 01:32 -29.34644 151.04242 38142 ft 387 kts 244°
2026-05-04 01:32 -29.37815 150.99222 38138 ft 388 kts 244°
2026-05-04 01:33 -29.40985 150.94196 38131 ft 388 kts 244°
2026-05-04 01:33 -29.44145 150.89179 38133 ft 388 kts 244°
2026-05-04 01:34 -29.47286 150.84183 38100 ft 388 kts 244°
2026-05-04 01:34 -29.50440 150.79166 38121 ft 387 kts 244°
2026-05-04 01:35 -29.53586 150.74152 38122 ft 387 kts 244°
2026-05-04 01:35 -29.56733 150.69131 38131 ft 387 kts 244°
2026-05-04 01:36 -29.59880 150.64105 38115 ft 387 kts 244°
2026-05-04 01:36 -29.63023 150.59079 38112 ft 387 kts 244°
2026-05-04 01:37 -29.66147 150.54076 38103 ft 385 kts 245°
2026-05-04 01:37 -29.69268 150.49069 38120 ft 385 kts 245°
2026-05-04 01:38 -29.72394 150.44050 38106 ft 385 kts 245°
2026-05-04 01:38 -29.75513 150.39038 38111 ft 385 kts 245°
2026-05-04 01:39 -29.78613 150.34048 38111 ft 385 kts 245°
2026-05-04 01:39 -29.81725 150.29036 38115 ft 384 kts 245°
2026-05-04 01:40 -29.84833 150.24018 38113 ft 385 kts 245°
2026-05-04 01:40 -29.87940 150.18999 38109 ft 385 kts 245°
2026-05-04 01:41 -29.91027 150.14006 38111 ft 385 kts 245°
2026-05-04 01:41 -29.94137 150.08971 38107 ft 385 kts 245°
2026-05-04 01:42 -29.97241 150.03937 38110 ft 385 kts 245°
2026-05-04 01:42 -30.00349 149.98893 38109 ft 385 kts 245°
2026-05-04 01:43 -30.03441 149.93869 38097 ft 383 kts 245°
2026-05-04 01:43 -30.06525 149.88846 38101 ft 384 kts 245°
2026-05-04 01:44 -30.09616 149.83808 38100 ft 385 kts 245°
2026-05-04 01:44 -30.12713 149.78757 38096 ft 384 kts 245°
2026-05-04 01:45 -30.15779 149.73750 38095 ft 384 kts 245°
2026-05-04 01:45 -30.20401 149.66193 38097 ft 381 kts 246°
2026-05-04 01:46 -30.23460 149.61176 38092 ft 382 kts 246°
2026-05-04 01:46 -30.26526 149.56144 38090 ft 383 kts 246°
2026-05-04 01:47 -30.29595 149.51103 38093 ft 383 kts 246°
2026-05-04 01:47 -30.32641 149.46093 38086 ft 383 kts 246°
2026-05-04 01:48 -30.35705 149.41046 38083 ft 383 kts 246°
2026-05-04 01:48 -30.38753 149.36025 38082 ft 381 kts 246°
2026-05-04 01:49 -30.41795 149.30998 38085 ft 381 kts 246°
2026-05-04 01:49 -30.44841 149.25964 38085 ft 381 kts 246°
2026-05-04 01:50 -30.47370 149.21779 38080 ft 381 kts 246°
2026-05-04 01:50 -30.50407 149.16747 38081 ft 381 kts 246°
2026-05-04 01:51 -30.53444 149.11708 38056 ft 380 kts 246°
2026-05-04 01:51 -30.56464 149.06694 38082 ft 380 kts 246°
2026-05-04 01:52 -30.59490 149.01660 38075 ft 380 kts 247°
2026-05-04 01:52 -30.62519 148.96617 38080 ft 380 kts 247°
2026-05-04 01:53 -30.65540 148.91578 38073 ft 380 kts 247°
2026-05-04 01:53 -30.68564 148.86530 38074 ft 380 kts 247°
2026-05-04 01:54 -30.71584 148.81484 38076 ft 379 kts 247°
2026-05-04 01:54 -30.74595 148.76440 38074 ft 380 kts 247°
2026-05-04 01:55 -30.77589 148.71419 38069 ft 380 kts 247°
2026-05-04 01:55 -30.80597 148.66371 38066 ft 380 kts 247°
2026-05-04 01:56 -30.83605 148.61318 38068 ft 380 kts 247°
2026-05-04 01:56 -30.86608 148.56265 38039 ft 380 kts 248°
2026-05-04 01:57 -30.89607 148.51214 38063 ft 379 kts 248°
2026-05-04 01:57 -30.92578 148.46202 38062 ft 379 kts 248°
2026-05-04 01:58 -30.95566 148.41157 38060 ft 379 kts 248°
2026-05-04 01:58 -30.98558 148.36096 38063 ft 379 kts 248°
2026-05-04 01:59 -31.01550 148.31029 38061 ft 379 kts 248°
2026-05-04 01:59 -31.04536 148.25970 38061 ft 377 kts 248°
2026-05-04 02:00 -31.07492 148.20951 38062 ft 378 kts 248°
2026-05-04 02:00 -31.10468 148.15890 38060 ft 378 kts 248°
2026-05-04 02:01 -31.13451 148.10815 38050 ft 379 kts 248°
2026-05-04 02:01 -31.16384 148.05721 38051 ft 377 kts 249°
2026-05-04 02:02 -31.19283 148.00603 38026 ft 377 kts 249°
2026-05-04 02:02 -31.22182 147.95501 38053 ft 377 kts 249°
2026-05-04 02:03 -31.25065 147.90425 38035 ft 378 kts 249°
2026-05-04 02:03 -31.27972 147.85302 38046 ft 378 kts 249°
2026-05-04 02:04 -31.30880 147.80173 38044 ft 378 kts 249°
2026-05-04 02:04 -31.33785 147.75039 38051 ft 378 kts 249°
2026-05-04 02:05 -31.36691 147.69895 38056 ft 379 kts 249°
2026-05-04 02:05 -31.39600 147.64744 38050 ft 379 kts 249°
2026-05-04 02:06 -31.42500 147.59597 38053 ft 380 kts 249°
2026-05-04 02:06 -31.45412 147.54426 38052 ft 380 kts 249°
2026-05-04 02:07 -31.48324 147.49247 38053 ft 380 kts 249°
2026-05-04 02:07 -31.51234 147.44062 38057 ft 380 kts 250°
2026-05-04 02:08 -31.54124 147.38909 38059 ft 380 kts 250°
2026-05-04 02:08 -31.57034 147.33708 38064 ft 382 kts 250°
2026-05-04 02:09 -31.59950 147.28496 38058 ft 382 kts 250°
2026-05-04 02:09 -31.62865 147.23276 38065 ft 382 kts 250°
2026-05-04 02:10 -31.65774 147.18058 38048 ft 384 kts 249°
2026-05-04 02:10 -31.68698 147.12808 38071 ft 384 kts 249°
2026-05-04 02:11 -31.71625 147.07547 38075 ft 384 kts 249°
2026-05-04 02:11 -31.74552 147.02276 38077 ft 384 kts 249°
2026-05-04 02:12 -31.77452 146.97049 38083 ft 385 kts 249°
2026-05-04 02:12 -31.80370 146.91781 38126 ft 385 kts 249°
2026-05-04 02:13 -31.83306 146.86469 38089 ft 388 kts 249°
2026-05-04 02:13 -31.86251 146.81140 38090 ft 388 kts 249°
2026-05-04 02:14 -31.89193 146.75810 38082 ft 388 kts 249°
2026-05-04 02:14 -31.92129 146.70478 38088 ft 388 kts 249°
2026-05-04 02:15 -31.95062 146.65148 38094 ft 388 kts 249°
2026-05-04 02:15 -31.98010 146.59774 38104 ft 391 kts 249°
2026-05-04 02:16 -32.00978 146.54366 38093 ft 393 kts 249°
2026-05-04 02:16 -32.03923 146.48994 38090 ft 393 kts 249°
2026-05-04 02:17 -32.06883 146.43580 38093 ft 393 kts 249°
2026-05-04 02:17 -32.09846 146.38163 38088 ft 393 kts 249°
2026-05-04 02:18 -32.12818 146.32700 38100 ft 397 kts 248°
2026-05-04 02:18 -32.15810 146.27212 38087 ft 398 kts 248°
2026-05-04 02:19 -32.18800 146.21717 38085 ft 398 kts 248°
2026-05-04 02:19 -32.21786 146.16214 38080 ft 398 kts 248°
2026-05-04 02:20 -32.24771 146.10712 38114 ft 398 kts 248°
2026-05-04 02:20 -32.27762 146.05189 38088 ft 400 kts 248°
2026-05-04 02:21 -32.30764 145.99639 38082 ft 400 kts 248°
2026-05-04 02:21 -32.33745 145.94115 38074 ft 401 kts 248°
2026-05-04 02:22 -32.36742 145.88552 38081 ft 400 kts 248°
2026-05-04 02:22 -32.39733 145.82994 38090 ft 401 kts 247°
2026-05-04 02:23 -32.42742 145.77403 38071 ft 403 kts 247°
2026-05-04 02:23 -32.45761 145.71779 38075 ft 404 kts 247°
2026-05-04 02:24 -32.48754 145.66196 38075 ft 404 kts 247°
2026-05-04 02:24 -32.51761 145.60577 38069 ft 404 kts 247°
2026-05-04 02:25 -32.54773 145.54942 38068 ft 405 kts 247°
2026-05-04 02:25 -32.57790 145.49279 38071 ft 407 kts 247°
2026-05-04 02:26 -32.60816 145.43598 38075 ft 407 kts 247°
2026-05-04 02:26 -32.63844 145.37914 38080 ft 407 kts 247°
2026-05-04 02:27 -32.66852 145.32259 38080 ft 407 kts 247°
2026-05-04 02:27 -32.69875 145.26560 38082 ft 408 kts 247°
2026-05-04 02:28 -32.72898 145.20838 38078 ft 409 kts 247°
2026-05-04 02:28 -32.75929 145.15104 38075 ft 409 kts 247°
2026-05-04 02:29 -32.78964 145.09363 38077 ft 409 kts 247°
2026-05-04 02:29 -32.81958 145.03674 38088 ft 410 kts 247°
2026-05-04 02:30 -32.84993 144.97928 38075 ft 410 kts 247°
2026-05-04 02:30 -32.88016 144.92176 38071 ft 410 kts 247°
2026-05-04 02:31 -32.91029 144.86424 38074 ft 410 kts 247°
2026-05-04 02:31 -32.94041 144.80662 38074 ft 410 kts 247°
2026-05-04 02:32 -32.97046 144.74907 38081 ft 410 kts 247°
2026-05-04 02:32 -33.00073 144.69147 38075 ft 409 kts 247°
2026-05-04 02:33 -33.03054 144.63420 38071 ft 409 kts 247°
2026-05-04 02:33 -33.06060 144.57655 38072 ft 409 kts 247°
2026-05-04 02:34 -33.09053 144.51880 38071 ft 410 kts 247°
2026-05-04 02:34 -33.12076 144.46096 38069 ft 410 kts 247°
2026-05-04 02:35 -33.14554 144.41285 38070 ft 409 kts 247°
2026-05-04 02:35 -33.18037 144.34543 38071 ft 409 kts 247°
2026-05-04 02:36 -33.21034 144.28754 38072 ft 409 kts 247°
2026-05-04 02:36 -33.23519 144.23939 38071 ft 410 kts 247°
2026-05-04 02:37 -33.26506 144.18141 38071 ft 410 kts 247°
2026-05-04 02:37 -33.29502 144.12335 38072 ft 410 kts 247°
2026-05-04 02:38 -33.32471 144.06522 38067 ft 410 kts 247°
2026-05-04 02:38 -33.35451 144.00712 38085 ft 410 kts 247°
2026-05-04 02:39 -33.38432 143.94873 38067 ft 411 kts 247°
2026-05-04 02:39 -33.41424 143.89049 38066 ft 411 kts 247°
2026-05-04 02:40 -33.44384 143.83249 38060 ft 410 kts 247°
2026-05-04 02:40 -33.47354 143.77416 38061 ft 411 kts 247°
2026-05-04 02:41 -33.50138 143.71465 38052 ft 409 kts 250°
2026-05-04 02:41 -33.52855 143.65456 38061 ft 409 kts 249°